Погода в Чирчике

Узбекистан     41°28′21″N   69°34′52″E
темп.,
°C
ветер,
м/с
пор.,
м/с
влажн.,
%
обл.,
%
осадки,
мм/ч
давл.,
гПа
погр.,
м
3 марта, ср
ср323:00+7всв2266100 0.0 102426
02:00+7вюв2365100 0.0 102439
05:00+6юв4786100 0.1 1025183
08:00+6в238597 0.0 102498
11:00+9ю346880 0.1 1023888
14:00+11ююз346189 0.4 10211082
17:00+11юз245647 0.7 10211037
20:00+8вюв11686 0.1 102222
4 марта, чт
чт423:00+7всв336839 0.1 102259
02:00+6в346275 0.0 102150
05:00+6в456438 0.0 102058
08:00+7в34620 0.0 102061
11:00+13юв354550 0.0 1018547
14:00+15ююз4843100 0.1 10161900
17:00+8вюв6781100 2.6 1017307
20:00+8в4775100 0.1 1019132
5 марта, пт
пт523:00+6ссз4994100 6.9 1023607
02:00+3ссз5794100 1.9 1026453
05:00+3сз2390100 3.2 1030384
08:00+2ссз228947 0.0 1032119
11:00+7сз126124 0.0 1030742
14:00+9ссз33430 0.0 10281113
17:00+9ссз22440 0.0 1025662
20:00+5всв33690 0.0 102554
6 марта, сб
сб623:00+4всв57450 0.0 1023109
02:00+4всв584370 0.0 1019127
05:00+4всв574384 0.0 1016102
08:00+5всв4643100 0.0 1013126
11:00+11св3537100 0.0 1011268
14:00+12ю2234100 0.0 1011704
17:00+10ююв1247100 0.0 1012436
20:00+8св2357100 0.0 101431
7 марта, вс
вс723:00+7ююв2366100 0.0 101544
02:00+5юв3486100 2.4 1016490
05:00+4юв1292100 5.2 1017126
08:00+5ююв4690100 2.0 1018474
11:00+5ю3593100 3.7 1019389
14:00+6юв2287100 0.2 1018255
17:00+8ю1171100 0.2 1018448
20:00+6всв1281100 0.0 101824